STARLINK-34622, 66015

Orbit data source: Space-Track

STARLINK-34622, 66015 is a payload satellite owned by SpaceX/Seattle (US) in LEO that was launched on Thu, 16 Oct 2025 UTC via an FALCON 9 launch vehicle from the Air Force Eastern Test Range (AFETR). Payload-class satellites include a variety of spacecraft equipped with specific instruments for various scientific and technological missions. These include communications satellites like Starlink; space stations such as the ISS; scientific satellites like the Hubble; Earth observation satellites from companies like Planet Labs, Umbra, and HawkEye 360; GPS; miniature CubeSats for education and research; and military/defense satellites.

Loading next visibility...
Identifier
66015, 2025-232L
Orbit
LEO
Country
Flag of USUS
Related business
Manufacturer
SpaceX/Seattle
Mission
Operational Commercial Communications
Bus & Motor
STARLINK V2MO, Unknown motor
Mass
575 kg wet, ~530 kg dry
Launch date (UTC)
2025-10-16 (8 months ago)
Launch vehicle
FALCON 9
Launch site
Air Force Eastern Test Range (AFETR)
Object type
Payload
Rocket body
Debris
Shape & HBR
Box + 2 Pan, 17.7 m
Radar Cross Section
36.964 m², Large (>1 m²)

Expand to show TLE details & history
Last TLE update: 23 hours ago

TLE from 23 hours ago
0 STARLINK-34622
1 66015U 25232L   26170.90311920  .00024377  00000-0  73003-3 0  9992
2 66015  53.1601 348.5178 0001037  79.6367 280.4753 15.34409895 39088
Epoch: 2026-06-19T21:40Z
TLE epoch observation values (Epoch: 2026-06-19T21:40:29.498Z)
Latitude
Longitude
115.26947°
Altitude
463.446 km
Speed
7.636 km/s
True Right ascension
23h 14m 04s
True Declination
0° 00' 00"
Sunlit
Object was in daylight at epoch
Visualization orbit readout
Latitude
Unknown
Longitude
Unknown
Altitude
Unknown
Speed
Unknown
Apparent Right ascension
Unknown
Apparent Declination
Unknown
Sunlit
N/A
Visualization observer readout
Local Sidereal Time
07:23:30
Azimuth
Unknown
Elevation
Unknown
Doppler factor
Unknown
Orbital elements
Apogee altitude
463.64 km
Perigee altitude
462.221 km
Semi-major axis
6,841.068 km
Eccentricity
0.0001
Inclination
53.1601°
RAAN
348.5178°
Arg. of periapsis
79.6367°
True anomaly
280.46361°
Mean anomaly
280.4753°
Eccentric anomaly
280.46946°
Mean motion
3.83581 °/min
Orbital period
93.85 mins
BSTAR
0.00073003
Loading maneuver chart data...
Computing Atmospheric mass density...
Loading historical data...
Loading historical data...
Loading historical data...
Loading historical data...
Loading historical data...
Loading historical data...
Loading historical data...

Documentation

Showing up to 5 results
|